TimeCST,TemperatureF,Dew PointF,Humidity,Sea Level PressureIn,VisibilityMPH,Wind Direction,Wind SpeedMPH,Gust SpeedMPH,PrecipitationIn,Events,Conditions,WindDirDegrees,DateUTC
12:56 AM,42.1,41.0,96,30.26,9.0,NNW,3.5,-,0.00,,Clear,330,2013-01-20 06:56:00
1:56 AM,42.1,41.0,96,30.25,7.0,NNW,3.5,-,0.00,Rain,Light Rain,330,2013-01-20 07:56:00
2:56 AM,42.1,41.0,96,30.24,9.0,NNW,3.5,-,0.00,,Clear,330,2013-01-20 08:56:00
3:56 AM,39.9,39.9,100,30.24,7.0,Calm,Calm,-,0.00,,Clear,0,2013-01-20 09:56:00
4:56 AM,39.9,39.9,100,30.23,6.0,NNW,3.5,-,0.00,,Clear,340,2013-01-20 10:56:00
5:56 AM,42.1,41.0,96,30.25,10.0,North,3.5,-,0.00,,Clear,350,2013-01-20 11:56:00
6:56 AM,42.1,41.0,96,30.25,10.0,Variable,4.6,-,N/A,,Clear,0,2013-01-20 12:56:00
7:56 AM,48.0,45.0,89,30.26,10.0,Calm,Calm,-,N/A,,Clear,0,2013-01-20 13:56:00
8:56 AM,55.9,46.9,72,30.27,10.0,North,4.6,-,N/A,,Clear,10,2013-01-20 14:56:00
9:56 AM,62.1,46.0,56,30.27,10.0,NNE,3.5,-,N/A,,Clear,30,2013-01-20 15:56:00
10:56 AM,64.0,45.0,50,30.25,10.0,NNE,8.1,-,N/A,,Clear,20,2013-01-20 16:56:00
11:56 AM,64.9,43.0,45,30.21,10.0,NNE,8.1,-,N/A,,Partly Cloudy,30,2013-01-20 17:56:00
12:56 PM,64.0,46.0,52,30.18,10.0,SSE,9.2,-,N/A,,Scattered Clouds,160,2013-01-20 18:56:00
1:56 PM,64.0,46.9,54,30.15,10.0,SSE,8.1,-,N/A,,Clear,150,2013-01-20 19:56:00
2:56 PM,62.1,46.0,56,30.14,10.0,South,5.8,-,N/A,,Clear,180,2013-01-20 20:56:00
3:56 PM,61.0,46.9,60,30.14,10.0,SSW,6.9,-,N/A,,Clear,200,2013-01-20 21:56:00
4:56 PM,57.0,48.9,74,30.14,10.0,SW,4.6,-,N/A,,Clear,230,2013-01-20 22:56:00
5:30 PM,55.4,48.2,77,30.14,10.0,Calm,Calm,-,N/A,,Clear,0,2013-01-20 23:30:00
5:56 PM,53.1,48.9,86,30.14,10.0,Calm,Calm,-,N/A,,Clear,0,2013-01-20 23:56:00
6:56 PM,50.0,46.9,89,30.15,10.0,West,4.6,-,N/A,,Clear,260,2013-01-21 00:56:00
7:56 PM,46.9,46.0,97,30.16,10.0,Calm,Calm,-,N/A,,Clear,0,2013-01-21 01:56:00
8:56 PM,44.1,44.1,100,30.17,10.0,Calm,Calm,-,0.00,Rain,Light Rain,0,2013-01-21 02:56:00
9:56 PM,46.0,45.0,96,30.17,10.0,WNW,3.5,-,0.00,,Clear,290,2013-01-21 03:56:00
10:56 PM,46.9,45.0,93,30.18,10.0,WNW,3.5,-,N/A,,Clear,300,2013-01-21 04:56:00
11:56 PM,42.1,42.1,100,30.16,10.0,WNW,3.5,-,N/A,,Clear,300,2013-01-21 05:56:00